Theta_e
362 361 358 355 354 353 354 355 354 354 353 348 349 356 356 360 362 358 359 362 365 366 365 367 369 368 365 367 368 367 366 364 364 360 363 362 364 364 363 363 365 363
363 363 361 359 358 358 356 355 357 355 356 355 349 352 359 360 360 361 360 359 362 365 367 365 367 369 367 364 366 365 366 365 365 360 361 363 362 362 363 365 364 366
364 363 361 359 356 357 353 355 357 357 355 355 353 353 354 359 360 364 363 361 360 359 364 366 366 368 366 366 366 365 363 366 365 360 362 362 361 360 365 361 362 363
366 365 363 360 357 357 356 355 357 358 357 355 355 351 351 353 359 361 364 364 362 361 361 364 364 363 366 366 366 364 363 365 365 365 362 363 363 361 361 363 362 362
365 364 363 362 359 359 359 356 353 355 356 354 356 357 355 357 359 359 362 364 365 363 363 362 362 362 364 366 366 364 362 361 364 366 365 363 365 363 360 360 362 360
364 366 366 363 361 358 357 356 355 354 357 353 354 356 356 356 355 358 361 363 363 360 357 359 362 362 362 364 365 365 361 358 358 364 365 365 362 359 357 359 361 361
362 364 364 363 360 358 358 360 359 358 357 357 356 356 357 357 358 358 361 362 360 361 356 359 363 363 362 363 365 365 364 363 362 362 364 364 366 363 358 358 361 361
363 364 365 364 362 359 359 359 360 359 360 360 355 357 357 357 361 360 360 360 361 361 362 357 363 365 360 360 362 364 364 361 360 363 363 365 364 364 364 359 360 362
363 364 366 364 362 360 358 358 359 361 361 360 356 355 358 358 360 362 364 362 362 362 364 361 364 361 363 361 362 363 363 361 359 361 362 363 363 364 363 364 360 361
364 365 364 362 360 360 359 357 358 359 361 358 358 355 356 360 361 363 365 366 361 362 363 365 364 363 364 362 361 362 363 364 363 361 362 362 361 361 361 361 360 361
362 362 362 361 360 359 358 358 356 358 360 359 359 356 355 359 362 364 366 366 362 362 363 365 365 365 366 363 361 361 362 363 365 364 362 362 363 363 362 361 360 359
361 360 361 361 360 358 357 358 356 356 358 361 361 359 357 355 361 362 363 365 366 364 364 366 367 368 368 365 360 360 361 362 364 364 362 363 364 364 363 363 360 360
360 360 360 360 360 358 357 357 357 355 355 358 360 359 357 355 357 362 363 364 367 366 364 366 367 367 368 368 364 362 361 362 360 362 363 364 365 363 360 359 359 359
360 360 360 361 361 363 360 357 357 355 354 356 360 359 357 355 354 359 362 362 366 367 367 367 368 367 368 369 368 362 359 360 361 361 359 361 362 362 359 356 355 356
362 361 360 362 363 366 364 360 357 356 356 357 359 360 358 356 355 355 361 362 364 366 367 366 366 366 366 367 368 365 360 357 360 361 360 359 360 358 359 358 355 353
366 366 364 364 364 367 367 364 358 358 355 356 357 359 360 360 360 357 357 360 361 364 366 365 364 366 361 347 354 366 363 356 357 360 362 360 360 360 357 356 357 355
365 366 368 367 368 368 367 365 363 360 360 362 361 361 364 366 360 356 354 356 360 362 363 364 363 362 346 337 340 348 364 363 358 360 363 363 359 361 360 357 356 356
364 367 368 368 369 368 368 368 363 361 364 364 360 360 366 362 359 359 360 356 357 360 362 363 363 350 334 335 337 338 350 367 361 358 358 361 362 359 360 360 359 354
369 367 367 366 368 368 369 368 368 366 362 360 358 362 364 366 367 361 361 359 357 361 360 361 362 342 331 332 334 335 336 352 361 360 356 356 361 363 361 362 363 361
368 368 367 368 369 369 370 369 367 366 362 361 362 364 365 366 364 364 364 366 363 362 366 362 364 338 329 328 331 331 334 341 364 359 360 358 360 360 362 363 364 364
368 368 368 369 370 370 370 369 368 366 364 363 363 363 365 366 365 364 365 366 364 362 362 362 361 331 326 325 326 327 330 336 363 361 361 362 362 363 365 365 367 367
368 368 369 370 370 370 369 369 369 368 367 366 365 363 366 367 368 366 365 366 366 365 361 361 362 324 325 324 324 325 328 353 362 362 361 361 362 364 365 369 369 368
368 368 369 370 370 369 369 369 368 369 369 368 365 364 364 365 367 366 368 366 366 367 364 362 362 334 322 321 322 322 330 359 362 361 362 362 363 365 366 367 367 369
369 370 369 369 370 369 368 368 370 371 369 368 366 365 363 365 366 367 367 367 366 366 365 365 363 344 317 319 319 319 336 361 362 361 362 363 364 366 366 367 369 369
370 370 369 369 370 369 369 369 370 370 370 370 367 366 364 366 366 366 366 367 365 366 359 362 364 347 316 319 317 317 338 364 363 362 361 362 363 364 367 367 369 369
370 371 371 369 370 370 371 371 371 371 371 370 368 366 364 363 364 365 365 366 365 365 366 365 364 364 337 316 316 315 323 362 365 362 361 362 364 363 364 367 368 370
Wind_Speed
13 13 13 12 12 11 11 11 10 11 10 9 9 9 9 8 8 7 8 8 9 8 8 7 7 7 6 6 5 5 4 4 5 5 5 6 6 6 6 5 5 4
15 14 12 12 11 11 10 11 11 10 10 9 9 8 8 8 9 9 8 8 9 9 8 8 8 8 7 6 6 6 5 5 6 5 5 6 6 6 6 7 6 5
15 15 15 15 14 15 15 13 11 11 10 11 11 9 8 9 9 9 9 9 9 9 9 8 8 8 8 7 7 7 6 6 6 6 5 6 6 6 5 6 6 6
16 16 15 16 15 15 14 13 12 11 11 11 11 11 10 9 9 10 9 10 9 9 9 9 9 9 9 8 8 7 7 7 6 6 6 5 6 6 6 5 5 5
17 16 15 15 14 14 13 14 15 13 13 12 12 11 10 9 9 11 10 10 9 10 9 9 9 9 9 8 9 7 7 7 7 7 6 6 6 6 6 5 6 6
16 15 15 15 14 14 14 15 15 14 14 14 13 11 11 12 11 11 11 11 11 11 11 11 10 10 10 9 8 8 8 8 7 8 8 7 7 7 6 6 6 7
18 17 18 16 16 16 15 14 14 14 14 13 12 12 12 12 13 12 11 11 12 11 12 10 10 10 9 9 9 9 8 8 7 7 9 8 7 8 7 6 6 6
19 18 17 16 17 16 16 15 14 14 13 13 13 13 12 13 13 13 12 12 12 12 11 11 10 10 11 10 9 9 10 8 9 8 8 8 8 8 7 7 6 7
18 18 17 18 18 16 18 17 15 15 14 14 13 13 13 13 13 13 12 12 12 11 11 11 10 11 10 10 9 10 10 10 9 10 10 9 9 9 8 8 8 7
19 18 20 19 19 17 18 18 16 15 15 15 15 13 14 13 13 13 13 12 13 12 12 11 11 11 11 11 11 11 11 10 10 9 10 10 10 10 10 9 9 8
21 20 20 20 20 17 19 19 18 16 15 16 15 15 15 13 13 13 13 13 13 13 13 13 12 12 12 12 11 11 11 11 10 10 10 10 10 10 10 9 9 9
21 20 21 21 21 19 20 19 18 17 16 15 16 16 15 14 14 13 13 14 13 13 13 13 12 12 12 12 12 12 11 11 10 11 11 11 11 10 10 9 9 9
22 21 20 20 20 19 17 17 18 18 18 17 16 15 16 15 15 15 13 14 14 13 14 13 13 13 11 12 12 11 11 11 11 11 11 10 11 12 12 11 11 10
21 21 20 18 18 16 16 17 17 17 16 15 14 16 16 17 16 16 14 14 14 14 13 13 13 13 13 12 12 12 11 12 11 11 12 11 11 11 11 11 11 11
18 18 18 18 17 15 15 15 16 16 15 14 14 15 14 16 16 16 15 15 14 14 14 13 13 13 12 12 12 13 12 13 12 12 12 11 11 12 11 11 10 11
16 15 16 16 16 15 15 15 16 16 17 16 15 15 13 13 13 14 15 16 15 15 14 13 12 12 12 16 14 12 13 11 11 11 11 11 10 10 11 11 11 11
16 16 15 16 16 15 15 16 15 15 14 13 14 14 13 12 13 15 16 15 16 15 15 14 13 12 16 17 17 16 13 12 11 11 11 11 11 10 10 11 11 11
17 16 16 16 15 16 16 16 16 15 14 14 15 16 13 14 15 15 14 15 14 15 15 14 14 13 17 18 18 17 14 11 12 11 11 11 11 11 10 10 11 11
17 17 17 17 17 17 16 16 16 15 16 16 17 15 14 14 14 15 14 14 13 14 15 15 14 14 17 19 18 18 17 13 11 11 12 12 11 11 11 10 9 9
17 18 18 17 17 16 16 17 17 16 17 17 15 14 14 15 16 15 13 13 13 12 11 12 13 13 18 19 19 19 18 14 12 11 11 11 11 11 11 11 11 9
18 18 18 17 17 17 17 17 17 16 16 15 15 16 15 14 15 15 13 14 15 14 12 12 12 16 19 20 19 20 19 14 13 11 9 9 10 10 11 11 11 10
19 18 17 17 18 18 17 17 17 16 16 14 13 14 14 13 13 13 14 15 14 14 14 14 10 16 19 20 20 20 18 10 12 12 12 10 10 10 10 9 10 10
19 19 18 18 18 18 18 18 17 16 15 13 14 14 14 14 14 14 13 14 15 14 15 13 13 14 19 19 19 19 13 10 12 12 11 12 11 10 10 10 11 11
19 19 19 18 18 18 18 17 16 14 15 14 14 14 14 15 13 13 13 14 15 16 16 14 13 13 20 20 20 20 17 12 11 11 11 10 10 11 10 10 11 13
18 18 18 18 18 18 17 17 16 15 14 13 13 13 13 12 12 12 13 13 14 16 14 16 14 12 20 20 21 22 18 12 11 11 11 11 10 10 10 10 10 11
17 18 18 18 18 17 15 15 14 13 14 14 14 13 12 12 13 13 14 13 13 15 13 16 16 10 16 22 22 22 22 13 11 11 11 11 11 10 9 10 10 10
Wind_Direction
189 189 192 194 198 199 201 200 201 201 204 209 210 206 211 205 209 214 202 202 198 209 206 205 200 207 212 211 215 225 237 234 245 228 222 228 224 233 236 241 244 235
189 190 191 195 195 199 202 203 203 205 201 209 216 209 201 204 200 211 208 205 199 206 209 205 204 205 210 213 209 219 220 225 230 235 229 224 238 242 237 238 238 240
188 191 192 194 195 197 200 201 203 205 206 207 209 216 207 200 204 199 208 207 207 207 207 208 205 205 210 216 212 213 216 223 229 239 232 230 236 237 250 238 236 228
189 192 195 197 199 196 199 200 200 205 209 205 208 208 212 208 198 201 202 205 208 209 206 206 208 207 207 211 213 217 221 223 226 229 235 231 229 241 240 242 247 240
188 192 196 200 199 197 196 201 203 202 208 208 207 206 203 211 199 202 199 200 207 206 208 207 203 212 203 204 207 219 219 221 214 219 231 232 228 230 238 238 242 244
189 191 195 198 197 195 197 200 204 205 205 209 207 203 202 199 207 204 201 201 200 208 208 205 204 205 205 199 205 213 220 226 211 204 221 228 235 226 230 224 224 231
187 190 194 196 196 195 198 199 201 205 205 209 203 207 201 199 202 206 206 205 208 204 212 206 204 205 202 201 201 207 216 225 238 207 208 223 226 237 240 233 227 228
188 188 191 194 194 193 197 198 200 201 206 204 208 203 205 202 200 205 206 204 208 208 207 209 202 204 207 205 202 203 211 213 217 228 215 218 226 226 229 240 229 226
188 188 189 193 195 194 197 197 197 200 201 204 207 204 201 207 201 205 202 203 207 207 205 207 202 203 208 208 204 203 209 218 214 210 215 218 220 225 227 225 231 230
188 189 191 194 195 196 197 198 197 197 197 203 204 207 199 202 207 203 201 200 203 205 203 205 201 203 204 207 208 207 209 214 221 216 211 216 222 224 223 226 229 228
188 190 192 194 196 198 197 199 199 197 196 201 202 208 207 197 202 203 202 199 202 202 202 202 202 201 203 207 206 208 210 213 214 218 220 218 219 222 229 228 227 230
190 192 193 194 197 199 199 199 200 200 196 198 203 205 209 204 196 202 202 200 202 203 201 201 201 201 202 208 210 207 208 214 213 215 217 218 219 220 223 224 231 233
190 193 194 195 196 200 199 199 201 203 201 198 200 204 205 206 198 199 201 202 201 203 202 199 200 202 202 204 212 212 207 211 217 214 217 216 218 221 224 222 225 228
193 192 194 194 195 197 199 199 200 203 203 200 196 203 205 206 205 196 199 202 200 203 203 199 199 202 203 203 206 211 210 211 216 219 218 217 219 222 225 227 225 225
191 191 193 191 193 191 197 200 199 200 200 201 197 203 206 208 209 202 197 201 201 201 202 202 200 202 203 201 201 205 210 212 213 217 220 221 221 223 222 227 235 234
187 187 188 190 189 188 193 197 199 199 200 201 200 201 204 208 209 209 203 200 201 200 202 203 204 204 198 195 196 201 205 212 213 216 221 222 221 224 227 223 225 233
186 186 184 187 187 186 189 193 198 198 199 197 199 198 202 201 209 209 212 204 201 202 202 205 206 207 185 186 193 201 203 207 212 213 216 220 221 218 224 227 229 230
186 184 184 185 184 185 187 190 194 197 197 194 197 198 197 202 204 210 212 213 205 204 205 208 211 200 176 183 189 196 206 208 209 215 215 215 218 219 218 222 228 231
182 183 183 183 184 184 184 185 190 196 196 195 197 197 194 201 204 206 209 214 214 206 209 209 216 184 175 181 187 193 202 215 215 215 218 218 215 215 219 219 222 227
182 182 182 183 181 181 182 184 189 194 195 195 194 193 195 199 205 204 206 208 215 217 211 214 219 167 176 180 187 192 199 206 222 222 223 223 218 216 215 218 220 224
183 182 182 180 180 180 181 185 188 191 194 194 193 193 195 197 202 204 204 206 209 215 217 214 223 161 175 178 186 192 197 200 218 229 237 234 227 222 220 219 218 219
182 181 181 179 179 181 183 185 187 189 192 194 195 196 197 196 200 205 203 204 206 209 215 215 209 162 177 179 183 191 187 194 213 225 234 240 235 229 224 221 223 222
182 181 180 180 181 182 184 186 186 188 191 192 196 198 196 197 199 202 203 204 204 205 211 212 218 174 176 182 183 182 171 198 210 220 229 232 238 233 227 225 223 223
182 182 181 181 181 184 185 186 186 185 189 190 196 197 198 199 200 202 204 206 205 207 206 208 218 176 177 179 181 174 179 195 204 215 224 229 232 233 230 228 225 220
183 183 184 183 184 186 185 185 185 185 187 189 197 202 203 201 202 202 206 207 209 210 201 207 219 184 177 177 180 178 184 197 199 211 218 223 226 228 225 229 230 221
184 184 185 186 186 185 185 184 182 183 186 188 196 201 203 206 203 207 208 208 209 212 204 207 215 204 176 178 179 181 186 193 201 209 215 218 222 225 223 222 226 230